Orbital Elements at Epoch 2459000.5 (2020-May-31.0) TDB
Reference: JPL 21 (heliocentric ecliptic J2000)
Element | Value | Uncertainty (1-sigma) | Units |
e | .1697545163098063 | 5.317e-08 | |
a | 3.096826795520916 | 1.9764e-08 | au |
q | 2.571126460752015 | 1.6387e-07 | au |
i | 2.107926044530231 | 4.1525e-06 | deg |
node | 104.2525583531492 | 0.00016281 | deg |
peri | 105.9450333937679 | 0.00016323 | deg |
M | 196.8334524911256 | 1.4303e-05 | deg |
tp | 2459902.699172659307 (2022-Nov-19.19917266) | 8.3453e-05 | TDB |
period | 1990.553254426648 5.45 | 1.9056e-05 5.217e-08 | d yr |
n | .1808542420050415 | 1.7314e-09 | deg/d |
Q | 3.622527130289816 | 2.3119e-08 | au |
|
| | Orbit Determination Parameters
Additional Information
|